Location: Courcelles
(49.2596°N, 1.7419°E)
Time: 00:37:49
(UTC+00:00)

Okean 2 Rocket - Pass Details

Date: 17 November 2025
Orbit: 610 x 635 km, 82.5° (Epoch: 05 December)

Event Time Altitude Azimuth Distance (km) Brightness Sun altitude
Rises 18:29:49 0° 191° (S) 2,886 6.7 -22.8°
Reaches altitude 10° 18:32:03 10° 193° (SSW) 1,981 5.8 -23.1°
Maximum altitude 18:36:26 79° 279° (W) 634 3.1 -23.8°
Enters shadow 18:37:50 43° 360° (N) 874 3.7 -24.1°
